Weather Roundup
Issued by NWS

Home | Current Version | Previous Version | Text Only | Print | Product List | Glossary On
Versions: 1 2 3 4 5 6 7 8 9 10 11 12 13 14 15 16 17 18 19 20 21 22 23 24 25 26 27 28 29 30 31 32 33 34 35 36 37 38 39 40 41 42 43 44 45 46 47 48 49 50
000
NZUS93 KARX 221110
HRRWXR

CURRENT HOURLY OBSERVATIONS ACROSS
MUCH OF THE UPPER MISSISSIPPI VALLEY
NATIONAL WEATHER SERVICE LA CROSSE WI
600 AM CDT TUE APR 22 2014


...SOUTHEAST MINNESOTA...


CITY           SKY/WX    TMP DP  RH WIND       PRES   REMARKS
ROCHESTER      CLEAR     37  28  70 N10       30.08R WCI  30
ROCHESTER/MAYO FAIR      38  28  66 NW6       30.09R WCI  34
WINONA         CLEAR     37  30  75 N6        30.09R WCI  33
AUSTIN         CLEAR     36  30  80 NW3       30.08S
ALBERT LEA     CLEAR     37  32  81 NW7       30.09F WCI  32
DODGE CENTER   CLEAR     39  34  81 N9        30.08S WCI  33
PRESTON        CLEAR     35  30  81 NW5       30.07S WCI  31
OWATONNA       CLEAR     34  30  86 CALM      30.10S
FARIBAULT      CLEAR     41  30  65 NW5       30.11R
$$

...ELSEWHERE IN MINNESOTA...


CITY           SKY/WX    TMP DP  RH WIND       PRES   REMARKS
MINNEAPOLIS    CLEAR     38  29  70 N8        30.12R WCI  32
INTNL FALLS    CLEAR     27  23  85 NW6       30.10R WCI  20
DULUTH         PTCLDY    31  23  72 NW8       30.04S WCI  23
RED WING       CLEAR     30  28  93 CALM      30.09S
REDWOOD FALLS  CLEAR     34  29  82 NW6       30.14S WCI  29
MANKATO        CLEAR     37  30  75 NW8       30.13R WCI  31
WORTHINGTON    CLEAR     30  21  69 CALM      30.16S
FAIRMONT       CLEAR     37  28  70 NW6       30.14S WCI  33
$$

...SOUTHWEST WISCONSIN...


CITY           SKY/WX    TMP DP  RH WIND       PRES   REMARKS
LA CROSSE      CLEAR     40  29  64 NW9       30.06S WCI  34
PRAIRIE DU CHI CLEAR     42  30  62 NW8       30.05R
BOSCOBEL       CLEAR     42  29  59 N7        30.05R
LONE ROCK      CLEAR     42  30  62 NW13      30.03R
PLATTEVILLE    CLEAR     41  30  66 NW12      30.03R
FORT MC COY    CLEAR     37  27  69 NW6       30.06S WCI  32
CAMP DOUGLAS   CLEAR     35  27  70 NW6       30.03R WCI  30
VIROQUA        FAIR      37  29  74 NW10      30.04R WCI  29
WIS DELLS      CLEAR     37  27  65 NW13      30.01R WCI  29
$$

...ELSEWHERE IN WISCONSIN...


CITY           SKY/WX    TMP DP  RH WIND       PRES   REMARKS
MILWAUKEE      CLEAR     42  29  59 NW15G21   29.94R
MADISON        PTCLDY    40  29  64 NW12      30.00R WCI  33
GREEN BAY      CLEAR     38  29  70 NW12      29.94R WCI  30
EAU CLAIRE     CLEAR     33  25  72 W6        30.07R WCI  28
BLACK RVR FLS  FAIR      36  26  68 NW5       30.05S WCI  32
MEDFORD        CLOUDY    33  28  79 NW8       30.00R WCI  27
WAUSAU         CLOUDY    38  26  62 NW10      29.96R WCI  31
WIS RAPIDS     MOCLDY    36  27  69 NW12      30.02R WCI  28
MARSHFIELD     CLOUDY    35  27  72 NW12      30.00S WCI  27
RICE LAKE      CLEAR     33  27  78 W7        30.08R WCI  26
$$

...NORTHEAST IOWA...


CITY           SKY/WX    TMP DP  RH WIND       PRES   REMARKS
WATERLOO       CLEAR     36  30  79 NW7       30.08S WCI  30
DUBUQUE        CLEAR     41  30  65 N16       30.02R
DECORAH        CLEAR     37  30  75 N7        30.06R WCI  32
MASON CITY     CLEAR     34  31  88 W10       30.12S WCI  26
CHARLES CITY   CLEAR     37  32  81 NW8       30.09S WCI  31
OELWEIN        CLEAR    N/A N/A N/A NW9       30.07S
$$

...ELSEWHERE IN IOWA...


CITY           SKY/WX    TMP DP  RH WIND       PRES   REMARKS
DES MOINES     CLEAR     45  31  58 N9        30.12S
IOWA CITY      CLEAR     44  31  60 N12G22    30.06R
FORT DODGE     CLEAR     37  28  70 NW5       30.13S WCI  34
MARSHALLTOWN   CLEAR     38  32  79 N9        30.09S WCI  31
CEDAR RAPIDS   CLEAR     42  30  62 N18       30.05R
$$

...NORTHERN ILLINOIS...


CITY           SKY/WX    TMP DP  RH WIND       PRES   REMARKS
CHICAGO-OHARE  PTCLDY    46  31  55 N16       29.92R
DUPAGE         CLEAR     45  35  68 N17       29.93R
CHICAGO-MIDWAY CLEAR     44  36  73 N12       29.93R
MOLINE         CLEAR     46  34  62 NW9       30.01R
ROCKFORD       CLEAR     45  32  60 N12       29.99R
STERLING       CLEAR     45  34  65 NW8       29.99R
PEORIA         CLEAR     49  36  61 VRB7      29.97R
$$

NOTE: "FAIR" INDICATES FEW OR NO CLOUDS BELOW 12,000 FEET WITH NO
SIGNIFICANT WEATHER AND/OR OBSTRUCTIONS TO VISIBILITY. WIND
SPEEDS ARE IN MILES-PER-HOUR.



USA.gov is the U.S. government's official web portal to all federal, state and local government web resources and services.